Weather History for Columbia, MO

Change the Weather History Date:

Sunday, June 30, 2013

  Actual Average Record
Temperature  
Mean Temperature 71 °F 76 °F  
Max Temperature 78 °F 86 °F 103 °F (1901)
Min Temperature 64 °F 66 °F 51 °F (1943)
Degree Days  
Heating Degree Days 0 0  
Month to date heating degree days 6 9  
Since 1 June heating degree days 6 11  
Since 1 July heating degree days 4902 5023  
Cooling Degree Days 6 11  
Month to date cooling degree days 267 248  
Year to date cooling degree days 401 351  
Since 1 June cooling degree days 267 248  
Growing Degree Days 21 (Base 50)    
Moisture  
Dew Point 61 °F    
Average Humidity 71    
Maximum Humidity 87    
Minimum Humidity 54    
Precipitation  
Precipitation T in 0.14 in 2.02 in (1945)
Month to date precipitation 2.05 4.47  
Year to date precipitation 28.76 21.02  
Snow  
Snow 0.00 in 0.00 in 0.00 in (2013)
Month to date snowfall 0.0 0.0  
Since 1 June snowfall 0.0 0.0  
Since 1 July snowfall 35.0 18.0  
Snow Depth 0.00 in    
Sea Level Pressure  
Sea Level Pressure 29.89 in    
Wind  
Wind Speed 12 mph (North)    
Max Wind Speed 22 mph    
Max Gust Speed 26 mph    
Visibility 10 miles    
Events Rain    
T = Trace of Precipitation, MM = Missing Value Source: NWS Daily Summary

Daily Weather History Graph

Daily Weather History Graph

Search for Another Location

Airport:

Trip Planner

Search our weather history database for the weather conditions in past years. The results will help you decide how hot, cold, wet, or windy it might be!

Date:

Astronomy

Jun. 30, 2013 Rise Set
Actual Time 5:47 AM CDT 8:37 PM CDT
Civil Twilight 5:15 AM CDT 9:09 PM CDT
Nautical Twilight 4:35 AM CDT 9:49 PM CDT
Astronomical Twilight 3:49 AM CDT 10:35 PM CDT
Moon 12:43 AM CDT (6/30) 1:55 PM CDT (6/30)
Length of Visible Light 15h 54m
Length of Day
14h 50m
Last Quarter, 45% of the Moon is Illuminated
Jun 30
Last Quarter
Jul 8
New
Jul 15
First Quarter
Jul 22
Full
Jul 29
Last Quarter

Hourly Weather History & Observations

Time (CDT) Temp. Dew Point Humidity Pressure Visibility Wind Dir Wind Speed Gust Speed Precip Events Conditions
12:54 AM 64.0 °F 61.0 °F 90% 29.80 in 10.0 mi NNW 9.2 mph - N/A   Overcast
1:54 AM 64.9 °F 61.0 °F 87% 29.82 in 10.0 mi NNW 8.1 mph - N/A   Overcast
2:27 AM 64.9 °F 61.0 °F 87% 29.84 in 10.0 mi North 8.1 mph - N/A   Overcast
2:54 AM 64.9 °F 61.0 °F 87% 29.82 in 10.0 mi North 9.2 mph - N/A   Overcast
3:38 AM 64.9 °F 61.0 °F 87% 29.84 in 10.0 mi North 10.4 mph - N/A   Overcast
3:54 AM 64.9 °F 61.0 °F 87% 29.82 in 10.0 mi North 10.4 mph - N/A   Mostly Cloudy
4:54 AM 64.0 °F 61.0 °F 90% 29.84 in 10.0 mi North 10.4 mph - 0.00 in Rain Light Rain
5:38 AM 64.0 °F 61.0 °F 90% 29.87 in 10.0 mi North 10.4 mph - 0.00 in   Overcast
5:54 AM 64.0 °F 61.0 °F 90% 29.86 in 10.0 mi North 9.2 mph - 0.00 in   Mostly Cloudy
6:05 AM 64.0 °F 61.0 °F 90% 29.87 in 10.0 mi North 8.1 mph - N/A   Mostly Cloudy
6:54 AM 64.9 °F 61.0 °F 87% 29.86 in 10.0 mi NNW 10.4 mph - N/A   Mostly Cloudy
7:54 AM 66.9 °F 62.1 °F 84% 29.88 in 10.0 mi NNW 11.5 mph - N/A   Scattered Clouds
8:07 AM 66.9 °F 62.1 °F 84% 29.90 in 10.0 mi NNW 11.5 mph - N/A   Mostly Cloudy
8:54 AM 68.0 °F 61.0 °F 78% 29.90 in 10.0 mi North 12.7 mph - N/A   Mostly Cloudy
9:01 AM 69.1 °F 61.0 °F 75% 29.92 in 10.0 mi North 16.1 mph - N/A   Scattered Clouds
9:54 AM 70.0 °F 61.0 °F 73% 29.91 in 10.0 mi NNW 16.1 mph - N/A   Mostly Cloudy
10:54 AM 71.1 °F 60.1 °F 68% 29.91 in 10.0 mi North 12.7 mph - N/A   Mostly Cloudy
11:54 AM 75.0 °F 61.0 °F 62% 29.90 in 10.0 mi North 16.1 mph 20.7 mph N/A   Scattered Clouds
12:54 PM 73.9 °F 59.0 °F 59% 29.90 in 10.0 mi North 16.1 mph 24.2 mph N/A   Mostly Cloudy
1:54 PM 75.9 °F 57.0 °F 52% 29.90 in 10.0 mi North 17.3 mph 24.2 mph N/A   Mostly Cloudy
2:54 PM 73.9 °F 57.9 °F 57% 29.91 in 10.0 mi North 13.8 mph - N/A   Overcast
3:54 PM 72.0 °F 60.1 °F 66% 29.92 in 10.0 mi NNW 15.0 mph - N/A   Overcast
4:54 PM 72.0 °F 60.1 °F 66% 29.92 in 10.0 mi NNW 13.8 mph - N/A   Overcast
5:54 PM 73.9 °F 60.1 °F 62% 29.92 in 10.0 mi North 15.0 mph - N/A   Overcast
6:54 PM 72.0 °F 61.0 °F 68% 29.92 in 10.0 mi North 10.4 mph - N/A   Overcast
7:54 PM 72.0 °F 60.1 °F 66% 29.93 in 10.0 mi North 13.8 mph - N/A   Mostly Cloudy
8:54 PM 70.0 °F 60.1 °F 71% 29.94 in 10.0 mi North 8.1 mph - N/A   Overcast
9:54 PM 66.9 °F 61.0 °F 81% 29.96 in 10.0 mi NNW 8.1 mph - N/A   Partly Cloudy
10:54 PM 68.0 °F 61.0 °F 78% 29.97 in 10.0 mi North 10.4 mph - N/A   Mostly Cloudy
11:54 PM 66.9 °F 60.1 °F 79% 29.97 in 10.0 mi North 10.4 mph - 0.00 in   Overcast